Date,TemperatureHighF,TemperatureAvgF,TemperatureLowF,DewpointHighF,DewpointAvgF,DewpointLowF,HumidityHigh,HumidityAvg,HumidityLow,PressureMaxIn,PressureMinIn,WindSpeedMaxMPH,WindSpeedAvgMPH,GustSpeedMaxMPH,PrecipitationSumIn
2013-1-1,54.5,53.4,51.9,53.0,50.4,48.2,95,89,85,30.11,29.92,24,9,24,0.00
2013-1-2,54.3,47.3,41.6,52.6,45.1,36.9,96,92,83,30.13,29.88,22,7,22,0.23
2013-1-3,43.0,41.6,38.4,39.2,36.7,34.6,90,83,78,30.21,30.09,18,6,18,0.07
2013-1-4,50.4,42.5,34.6,36.8,32.3,27.3,89,69,43,30.26,30.15,19,4,19,0.00
2013-1-5,49.5,42.3,35.3,39.7,30.7,25.2,80,64,43,30.34,30.22,12,3,12,0.00
2013-1-6,49.5,46.8,42.7,45.7,41.0,36.3,92,80,67,30.24,30.04,10,1,10,0.04
2013-1-7,51.2,45.8,41.1,44.2,37.9,35.2,92,74,58,30.40,30.08,17,6,19,0.00
2013-1-8,60.1,50.6,41.8,51.9,45.6,37.0,92,83,72,30.41,30.31,15,4,15,0.00
2013-1-9,68.6,56.6,49.6,58.2,52.4,47.4,93,86,67,30.39,30.31,9,1,9,0.00
2013-1-10,59.4,54.3,47.6,54.0,45.1,31.8,95,73,37,30.48,30.36,21,5,21,0.00
2013-1-11,60.9,55.5,47.8,59.8,53.7,42.6,97,93,82,30.40,30.13,15,3,15,0.11
2013-1-12,60.0,56.2,53.1,59.2,55.4,52.3,98,97,96,30.16,30.08,6,0,6,0.01
2013-1-13,60.5,57.8,53.6,59.7,57.0,53.0,99,97,95,30.15,30.08,13,2,13,0.01
2013-1-14,62.9,59.2,56.5,60.8,58.0,55.4,97,96,92,30.18,30.08,14,4,14,0.01
2013-1-15,61.8,56.5,52.6,60.2,55.3,51.6,98,96,89,30.17,30.05,16,4,16,0.09
2013-1-16,62.4,58.9,56.2,61.0,57.7,55.0,98,96,93,30.05,29.95,29,7,29,0.01
2013-1-17,64.0,54.4,42.9,62.3,53.4,41.0,99,96,91,29.98,29.76,31,7,31,0.41
2013-1-18,47.4,42.6,38.2,41.9,35.0,29.7,93,76,51,30.49,29.88,30,8,30,0.00
2013-1-19,57.0,48.4,37.9,50.2,40.9,31.0,91,76,56,30.45,30.14,13,3,13,0.00
2013-1-20,56.6,53.1,49.5,51.8,48.4,41.4,93,84,65,30.14,29.96,22,8,22,0.00
2013-1-21,58.2,52.6,45.6,51.2,44.8,36.4,85,75,65,30.03,29.84,24,7,26,0.00
2013-1-22,53.8,44.1,39.1,43.5,23.8,13.0,69,45,30,30.12,29.89,29,7,29,0.00
2013-1-24,31.2,29.0,28.0,12.9,10.5,8.6,52,45,39,30.45,30.36,27,12,27,0.00
2013-1-25,38.3,32.0,26.7,32.9,23.1,10.8,94,70,48,30.45,30.04,19,5,19,0.16
2013-1-26,39.6,34.1,30.2,34.6,30.7,27.1,93,87,81,30.33,30.06,17,6,17,0.00
2013-1-27,42.1,36.3,30.5,31.9,28.7,24.1,93,75,52,30.51,30.33,23,6,23,0.00
2013-1-28,54.7,44.0,36.3,53.2,40.4,29.8,96,87,76,30.46,30.22,14,4,14,0.01
2013-1-29,57.4,52.6,49.0,56.6,51.6,48.2,98,96,95,30.22,30.10,16,5,16,0.01
2013-1-30,63.2,58.8,54.4,60.1,57.2,53.5,98,94,88,30.11,29.61,37,12,37,0.01
2013-1-31,64.3,53.9,47.0,61.2,42.8,27.2,94,68,39,30.03,29.49,45,20,45,0.10
2013-2-1,52.2,44.8,33.4,38.0,24.2,8.4,62,46,22,30.34,29.97,40,16,44,0.00
2013-2-2,52.9,37.4,29.0,47.4,23.8,8.9,86,58,31,30.36,29.98,24,3,24,0.00
2013-2-3,52.2,46.4,42.0,45.2,35.5,30.0,81,66,44,29.99,29.81,24,6,24,0.00
2013-2-4,51.1,42.7,34.7,41.8,29.2,21.1,71,59,38,30.10,29.93,18,6,18,0.00
2013-2-5,55.4,51.2,46.6,49.8,44.5,37.5,90,78,70,30.01,29.85,28,11,28,0.00
2013-2-6,62.1,52.5,46.8,49.7,45.0,37.0,92,77,41,30.21,29.93,16,4,16,0.00
2013-2-7,59.2,52.7,46.7,54.9,49.0,43.6,95,87,73,30.23,29.79,32,10,32,2.20
2013-2-8,61.7,53.1,47.1,60.7,49.2,41.2,98,87,77,29.93,29.42,43,12,43,1.39
2013-2-9,52.7,45.4,39.3,42.1,28.7,21.9,78,53,31,30.32,29.92,23,8,23,0.00
2013-2-10,52.8,45.4,38.4,47.4,37.2,30.1,90,74,52,30.43,30.27,13,4,13,0.00
2013-2-11,59.6,57.4,50.2,58.1,54.9,47.4,96,91,83,30.28,29.91,32,15,32,0.13
2013-2-12,58.0,55.3,53.2,55.0,51.2,39.8,96,87,51,30.04,29.91,23,5,23,0.06
2013-2-13,55.8,51.9,48.7,55.0,50.1,46.0,97,94,84,29.97,29.61,25,5,25,0.40
2013-2-14,52.5,47.4,43.0,47.8,41.0,38.2,87,79,68,30.05,29.75,16,4,16,0.00
2013-2-15,54.3,48.7,42.2,44.3,41.0,38.1,91,75,59,30.06,29.92,14,3,14,0.00
2013-2-16,52.4,44.5,34.9,45.3,40.0,32.5,92,84,74,29.92,29.64,31,6,31,0.09
2013-2-17,37.3,34.3,31.3,32.8,21.2,11.1,93,62,34,30.24,29.79,34,10,34,0.02
2013-2-18,51.8,38.8,29.3,40.6,21.1,14.1,66,49,37,30.41,30.24,20,6,28,0.00
2013-2-19,58.3,54.4,50.9,54.5,49.6,40.0,93,84,64,30.27,29.87,42,15,42,0.27
2013-2-20,54.2,47.8,41.0,44.6,33.6,14.4,89,62,24,30.08,29.91,22,7,22,0.00
2013-2-21,49.1,43.6,36.1,37.6,32.1,24.0,76,64,48,30.21,30.04,17,5,17,0.00
2013-2-22,54.2,44.1,39.1,51.9,37.3,29.9,94,77,65,30.29,30.05,21,7,21,0.00
2013-2-23,60.7,52.7,47.7,59.2,51.7,46.9,97,96,91,30.05,29.79,22,5,22,0.52
2013-2-24,60.0,51.3,46.4,52.4,48.8,45.6,97,92,67,29.96,29.73,16,4,16,0.01
2013-2-25,51.7,42.8,39.5,50.0,36.7,33.2,96,79,67,30.14,29.96,26,9,26,0.00
2013-2-26,65.0,55.2,42.5,64.1,53.2,37.7,97,93,83,30.05,29.57,40,18,40,0.59
2013-2-27,65.0,54.5,50.2,64.1,49.6,41.7,97,83,71,29.77,29.59,32,20,32,0.00
2013-2-28,54.3,50.1,45.9,48.5,40.4,32.6,85,70,51,29.79,29.65,28,12,28,0.00
2013-3-1,50.1,44.9,38.0,40.8,33.3,29.2,74,64,45,29.85,29.76,21,7,21,0.00
2013-3-2,50.2,45.0,39.0,36.4,32.3,27.9,75,62,44,29.85,29.75,17,5,17,0.00
2013-3-3,46.8,40.8,33.5,32.3,26.8,23.8,74,58,42,29.89,29.78,20,5,20,0.00
2013-3-4,47.7,40.4,30.6,29.9,22.3,17.0,64,49,32,30.06,29.88,24,7,24,0.00
2013-3-5,59.3,51.7,42.7,54.7,41.8,24.4,89,70,46,30.07,29.59,29,8,29,0.01
2013-3-6,59.4,48.1,41.7,56.1,38.5,27.4,90,70,46,29.84,29.45,46,23,46,0.09
2013-3-7,54.1,46.2,40.4,34.8,32.0,29.6,73,58,41,30.11,29.84,29,10,30,0.00
2013-3-8,53.1,45.4,36.3,32.5,29.0,24.3,72,53,35,30.15,30.02,27,10,28,0.00
2013-3-9,60.4,49.2,39.1,38.1,33.5,30.2,72,56,35,30.24,30.14,20,6,20,0.00
2013-3-10,60.0,49.4,40.4,46.9,41.8,29.9,91,76,32,30.26,30.20,19,4,19,0.00
2013-3-11,59.9,54.9,48.2,55.2,51.1,45.7,92,87,77,30.21,29.94,22,6,24,0.00
2013-3-12,59.6,57.2,55.2,58.3,55.4,51.0,96,94,79,29.95,29.75,20,10,23,0.41
2013-3-13,57.4,51.8,46.5,51.0,41.0,27.5,80,67,45,30.01,29.85,21,10,23,0.00
2013-3-14,51.1,44.5,35.5,30.7,24.5,20.2,60,46,32,30.15,30.01,25,9,27,0.00
2013-3-15,55.6,47.9,38.6,48.4,33.3,19.7,77,58,33,30.15,29.92,30,13,32,0.00
2013-3-16,58.5,56.2,54.7,52.6,51.2,48.3,88,83,77,29.91,29.70,37,20,38,0.00
2013-3-17,58.2,52.7,47.4,52.8,48.5,43.1,93,86,75,30.11,29.82,25,10,25,0.00
2013-3-18,63.2,53.9,48.6,55.4,50.5,45.2,95,89,74,30.08,29.87,20,6,21,0.00
2013-3-19,65.5,57.5,54.5,57.5,52.4,35.7,96,84,48,29.94,29.72,18,7,20,0.32
2013-3-20,55.0,51.2,47.5,38.8,26.5,15.2,70,40,21,30.06,29.75,18,6,18,0.00
2013-3-21,52.2,45.6,37.0,39.0,30.8,16.2,73,57,38,29.91,29.64,19,6,24,0.00
2013-3-22,50.1,40.1,30.4,37.8,24.1,14.4,66,53,37,30.03,29.91,23,10,24,0.00
2013-3-23,53.2,49.5,44.7,42.7,35.0,26.6,79,58,36,30.00,29.87,12,4,13,0.00
2013-3-24,59.2,49.9,44.5,56.9,46.0,39.7,94,87,68,29.87,29.36,30,9,32,0.45
2013-3-25,49.9,46.3,43.1,45.3,37.5,27.8,94,73,49,29.76,29.44,34,13,34,0.00
2013-3-26,48.7,43.9,37.7,35.0,30.2,26.6,71,59,46,30.03,29.77,21,9,23,0.00
2013-3-27,54.7,45.9,36.9,34.0,28.8,24.0,74,53,31,30.14,30.02,22,7,27,0.00
2013-3-28,54.9,46.4,36.7,37.4,28.1,24.5,67,50,33,30.21,30.09,17,5,21,0.00
2013-3-29,54.2,48.6,40.4,45.7,35.1,26.6,76,60,35,30.27,30.16,20,9,22,0.00
2013-3-30,59.6,54.0,50.5,50.0,46.5,40.6,86,76,51,30.19,30.10,16,6,20,0.00
2013-3-31,58.6,56.6,53.1,54.8,52.5,47.1,93,86,78,30.10,29.83,33,14,34,0.03
2013-4-1,58.9,55.7,54.8,57.5,54.1,52.9,96,94,91,29.89,29.79,21,7,21,0.00
2013-4-2,56.5,52.2,48.0,53.2,41.7,32.4,95,69,42,30.11,29.89,17,6,18,0.00
2013-4-3,54.8,50.2,48.2,48.2,39.6,31.1,85,68,43,30.25,30.08,18,6,21,0.00
2013-4-4,61.8,52.2,47.1,60.4,45.1,34.7,96,77,61,30.28,29.70,40,13,41,1.57
2013-4-5,59.5,51.6,44.8,58.1,48.1,43.5,97,88,73,29.99,29.69,24,6,24,0.01
2013-4-6,57.5,51.1,46.3,47.8,42.1,33.3,91,73,45,30.27,29.99,23,8,24,0.00
2013-4-7,60.9,55.1,46.2,55.8,51.1,42.5,93,86,71,30.25,30.15,11,4,11,0.00
2013-4-8,63.9,60.5,57.9,60.5,57.3,54.9,93,89,86,30.19,30.10,18,6,18,0.00
2013-4-9,63.5,61.3,59.1,60.7,59.1,57.1,94,92,90,30.21,30.11,18,8,18,0.00
2013-4-10,64.8,61.7,59.2,61.6,59.9,58.1,97,94,88,30.14,30.01,23,11,24,0.00
2013-4-11,65.9,63.7,60.5,64.4,62.1,59.1,96,94,92,30.02,29.88,19,11,19,0.00
2013-4-12,64.7,64.1,63.4,63.2,62.1,61.9,96,93,93,29.89,29.68,19,11,19,0.00
2013-4-13,64.9,61.1,57.2,61.9,55.2,47.3,93,82,60,30.01,29.75,24,10,26,0.00
2013-4-14,67.7,62.9,58.4,60.5,56.5,51.7,88,80,68,30.10,30.00,11,2,11,0.00
2013-4-15,67.6,64.7,63.1,62.1,59.8,57.5,91,84,76,30.18,29.96,29,15,29,0.10
2013-4-16,72.5,66.2,62.4,66.0,62.0,59.9,95,87,72,30.26,30.16,19,5,19,0.00
2013-4-17,68.3,65.5,61.5,64.5,61.9,59.2,93,88,81,30.23,30.15,10,3,10,0.00
2013-4-18,69.0,67.0,64.5,65.0,63.0,60.9,90,87,83,30.21,30.09,15,5,15,0.00
2013-4-19,69.8,67.9,65.6,67.5,65.7,63.8,95,93,89,30.09,29.87,38,16,38,0.17
2013-4-20,69.2,62.2,55.1,67.1,57.6,47.0,94,85,73,30.24,29.86,29,12,29,0.09
2013-4-21,59.5,55.6,50.2,48.7,44.5,38.0,83,67,53,30.43,30.22,33,13,33,0.00
2013-4-22,55.8,53.8,50.9,53.1,50.5,45.6,94,89,83,30.37,30.10,30,15,30,0.18
2013-4-23,63.1,56.5,52.9,54.2,52.3,50.4,95,86,69,30.16,30.04,25,9,26,0.00
2013-4-24,64.5,59.4,53.3,61.8,56.1,49.8,93,89,83,30.18,30.04,19,8,19,0.00
2013-4-25,68.6,61.2,54.1,63.3,56.5,47.8,96,85,72,30.25,30.04,23,9,23,0.01
2013-4-26,67.2,59.4,52.9,51.2,46.3,35.0,90,65,33,30.37,30.24,21,6,21,0.00
2013-4-27,69.9,61.8,55.7,54.3,47.4,36.0,89,63,30,30.37,30.27,19,6,19,0.00
2013-4-28,68.0,62.5,55.3,58.8,51.3,38.3,81,67,34,30.27,30.11,18,5,18,0.00
2013-4-29,65.2,63.6,61.9,62.0,60.1,57.8,94,89,80,30.11,29.98,24,9,24,0.53
2013-4-30,71.0,65.7,62.7,64.2,61.9,60.2,96,88,70,30.10,29.97,18,5,18,0.00
2013-5-1,71.4,65.0,61.0,64.9,60.6,57.7,93,86,73,30.24,30.07,20,7,20,0.00
2013-5-2,68.6,63.6,61.0,62.0,59.4,54.6,95,87,65,30.26,30.18,24,9,24,0.07
2013-5-3,67.1,61.4,57.2,59.2,54.3,47.7,92,78,59,30.18,30.11,31,13,31,0.00
2013-5-4,63.2,58.3,55.6,57.1,55.2,52.3,95,90,79,30.11,30.01,30,12,30,0.15
2013-5-5,70.0,63.1,57.3,62.7,59.3,54.9,94,88,76,30.02,29.95,21,10,22,0.03
2013-5-6,66.9,65.1,62.4,63.2,61.5,59.5,94,88,81,29.98,29.86,33,13,33,0.75
2013-5-7,65.7,63.0,60.2,60.7,58.2,53.0,93,84,74,29.96,29.85,26,8,26,0.03
2013-5-8,67.5,64.5,62.6,62.1,59.6,56.6,90,84,70,30.03,29.93,22,9,22,0.00
2013-5-9,67.8,66.2,64.7,64.1,62.7,61.0,92,89,85,30.08,29.96,21,11,21,0.00
2013-5-10,70.1,67.7,65.1,67.9,65.0,62.8,95,91,87,30.09,30.02,17,6,17,0.00
2013-5-11,71.8,69.6,68.4,69.2,67.2,66.2,94,92,88,30.03,29.84,30,14,30,0.00
2013-5-12,75.5,69.1,65.8,67.4,64.5,51.5,96,86,57,29.97,29.77,25,9,25,0.00
2013-5-13,69.3,64.1,58.8,53.7,46.1,36.3,74,53,32,30.11,29.96,24,8,24,0.00
2013-5-14,67.5,61.2,53.8,52.6,42.0,30.1,67,51,27,30.22,30.10,24,9,24,0.00
2013-5-15,68.7,67.0,65.2,63.5,59.7,50.6,85,78,59,30.14,29.94,32,19,32,0.00
2013-5-16,70.0,68.0,67.0,66.0,64.6,63.3,92,89,85,29.99,29.91,29,15,29,0.00
2013-5-17,72.0,68.9,67.3,68.3,66.2,65.1,94,91,87,30.13,29.97,17,5,17,0.00
2013-5-18,73.1,70.5,68.3,70.9,68.3,66.2,94,93,89,30.18,30.11,11,5,11,0.00
2013-5-19,74.2,71.8,70.0,69.8,68.4,66.0,93,89,81,30.18,30.11,24,6,24,0.00
2013-5-20,74.3,71.9,69.4,69.8,68.8,66.1,92,90,85,30.16,30.07,25,9,25,0.00
2013-5-21,73.4,72.6,71.5,70.7,69.8,68.9,93,91,87,30.09,30.01,24,12,24,0.00
2013-5-22,75.7,73.8,72.6,72.2,71.0,70.0,93,91,88,30.07,30.00,20,9,20,0.00
2013-5-23,74.3,72.7,70.7,71.5,70.3,67.9,94,92,89,30.02,29.85,30,10,30,0.14
2013-5-24,79.5,72.2,60.9,71.6,62.3,46.6,95,73,50,30.11,29.77,24,9,24,0.00
2013-5-25,72.5,62.8,53.2,53.4,42.9,34.2,73,50,26,30.22,30.11,21,7,21,0.00
2013-5-26,73.6,67.3,61.1,59.2,55.8,50.7,77,67,51,30.22,30.13,16,5,16,0.00
2013-5-27,72.7,69.3,63.6,65.2,58.1,50.3,85,68,46,30.28,30.19,16,4,16,0.00
2013-5-28,74.5,72.1,70.3,69.1,66.8,64.4,90,83,79,30.28,30.20,15,7,15,0.00
2013-5-29,75.5,73.3,70.8,70.0,69.0,67.9,92,86,80,30.28,30.19,14,6,14,0.00
2013-5-30,78.2,74.8,72.1,72.7,70.2,68.1,90,86,80,30.30,30.22,12,5,12,0.00
2013-5-31,77.4,75.3,73.5,73.0,71.8,70.6,92,89,86,30.25,30.16,15,7,15,0.00
2013-6-1,76.9,75.5,74.3,72.7,71.9,71.2,92,89,85,30.19,30.10,17,9,17,0.00
2013-6-2,77.4,76.1,74.8,73.3,72.0,71.0,90,87,83,30.11,29.99,23,14,23,0.00
2013-6-3,76.7,74.8,70.1,73.9,71.9,67.3,94,91,86,30.00,29.88,31,14,31,0.35
2013-6-4,79.6,74.5,70.0,73.7,69.6,64.1,95,85,65,30.10,29.91,17,5,17,0.12
2013-6-5,78.8,73.6,69.0,67.1,64.1,59.1,87,73,53,30.12,30.04,22,7,22,0.00
2013-6-6,76.4,75.0,72.1,73.1,70.6,66.7,93,86,81,30.05,29.87,22,12,22,0.09
2013-6-7,78.9,76.4,73.7,75.8,73.7,71.0,94,91,85,29.88,29.64,47,22,47,0.60
2013-6-8,76.8,76.4,75.8,74.9,74.2,73.7,94,93,91,30.11,29.98,33,19,33,0.00
2013-6-9,78.7,76.2,75.0,76.5,74.1,70.1,96,93,84,30.17,30.11,28,10,28,0.00
2013-6-10,78.1,76.9,75.4,75.4,74.4,72.6,93,92,89,30.16,30.00,29,17,29,0.02
2013-6-11,77.9,76.8,75.2,75.4,73.4,71.1,94,89,84,30.01,29.89,34,20,34,0.01
2013-6-12,80.2,77.8,75.2,76.7,74.4,69.9,96,89,75,29.98,29.89,21,9,21,0.00
2013-6-13,81.6,78.9,73.2,77.4,75.9,66.3,96,91,64,29.90,29.65,43,17,43,0.09
2013-6-14,79.8,74.2,68.5,70.4,62.6,56.4,92,69,47,30.02,29.68,26,8,26,0.13
2013-6-15,78.0,74.3,68.3,66.8,60.9,56.6,74,63,52,30.11,30.01,23,10,23,0.00
2013-6-16,77.8,76.9,76.2,69.9,67.7,64.8,77,73,67,30.16,30.07,30,20,30,0.00
2013-6-17,77.9,77.2,76.5,73.1,70.7,67.4,86,80,73,30.08,29.99,30,18,30,0.00
2013-6-18,78.9,77.7,73.4,76.4,74.3,69.6,93,89,80,30.01,29.82,39,18,39,0.09
2013-6-19,79.1,73.4,70.1,75.1,69.4,65.2,93,88,78,30.10,29.84,36,10,36,0.77
2013-6-20,80.3,74.1,69.7,70.1,64.9,52.0,91,75,38,30.20,30.07,22,9,22,0.00
2013-6-21,83.0,75.6,70.1,73.4,70.5,64.8,92,84,70,30.20,30.14,22,9,22,0.00
2013-6-22,77.6,75.4,73.4,74.4,71.7,69.6,91,88,81,30.20,30.14,30,14,30,0.26
2013-6-23,79.1,77.5,75.0,75.3,74.3,72.0,92,90,86,30.23,30.17,26,8,26,0.02
2013-6-24,79.3,78.4,77.4,76.2,75.3,73.9,92,90,88,30.25,30.12,25,12,25,0.00
2013-6-25,79.4,78.2,74.9,76.3,75.0,70.8,92,90,83,30.16,30.03,28,16,28,0.05
2013-6-26,79.7,78.9,78.3,76.5,75.5,73.5,92,89,85,30.07,29.94,30,18,30,0.00
2013-6-27,80.1,78.8,76.5,77.3,75.3,71.3,92,89,82,29.95,29.78,37,23,37,0.00
2013-6-28,79.9,79.3,77.3,77.6,76.7,71.9,94,92,82,29.81,29.65,41,24,41,0.19
2013-6-29,79.8,79.0,78.0,77.2,75.5,73.9,93,89,86,29.81,29.65,38,25,38,0.00
2013-6-30,149.5,126.3,77.8,99.9,97.3,72.9,90,86,84,29.93,29.78,36,17,36,0.25
2013-7-1,130.7,86.8,76.1,99.9,79.1,72.5,92,90,86,30.09,29.90,26,19,26,0.00
2013-7-2,80.6,78.2,76.2,77.4,75.0,73.1,92,90,87,30.25,30.08,27,11,27,0.03
2013-7-3,80.4,77.7,76.9,77.5,74.7,74.1,92,91,89,30.29,30.20,30,17,30,0.29
2013-7-4,80.8,80.0,79.3,76.6,75.5,74.2,89,86,83,30.31,30.25,18,10,18,0.00
2013-7-5,80.9,80.2,78.8,76.8,76.0,74.2,88,87,83,30.31,30.22,17,13,17,0.06
2013-7-6,82.0,80.7,79.5,75.6,74.3,72.7,86,81,75,30.28,30.19,18,10,18,0.00
2013-7-7,81.3,80.3,79.6,74.8,73.2,71.5,83,79,76,30.22,30.12,23,14,23,0.00
2013-7-8,81.0,80.1,79.5,75.1,73.3,71.6,84,80,75,30.21,30.14,22,15,22,0.00
2013-7-9,81.3,79.3,76.6,76.2,74.4,71.4,89,85,78,30.21,30.13,23,16,23,0.06
2013-7-10,81.5,80.5,79.3,76.3,75.0,72.9,88,83,78,30.16,30.02,27,16,27,0.01
2013-7-11,80.7,79.6,76.9,76.4,75.3,71.8,93,87,82,30.04,29.92,35,18,35,0.06
2013-7-12,80.2,76.8,71.8,76.5,73.2,69.3,94,89,83,30.00,29.90,28,11,28,1.68
2013-7-13,81.9,79.5,76.2,76.6,74.8,72.0,91,86,79,30.20,29.99,31,15,34,0.22
2013-7-14,83.4,81.3,77.2,76.3,75.3,72.0,88,82,75,30.28,30.20,22,12,22,0.00
2013-7-15,83.4,81.0,78.2,76.8,75.3,72.9,91,83,73,30.30,30.24,17,8,17,0.00
2013-7-16,84.1,81.1,76.2,77.8,75.5,71.9,93,83,70,30.27,30.17,18,4,18,0.00
2013-7-17,91.2,82.8,76.8,77.9,74.7,70.0,89,77,51,30.20,30.11,19,6,19,0.00
2013-7-18,86.4,81.8,76.7,77.5,73.6,68.7,88,77,56,30.15,30.08,20,7,20,0.00
2013-7-19,82.5,81.6,80.8,77.8,76.5,75.0,88,85,81,30.14,30.05,30,18,30,0.00
2013-7-20,81.6,80.5,77.1,77.2,75.4,73.4,91,85,78,30.08,29.99,38,23,38,0.26
2013-7-21,80.6,79.5,76.0,76.9,75.4,72.2,91,87,79,30.04,29.95,27,18,28,0.11
2013-7-22,80.5,79.4,78.0,77.5,76.1,74.7,91,90,86,29.98,29.86,34,16,34,0.00
2013-7-23,80.1,78.8,77.4,77.5,75.6,73.7,92,90,87,29.90,29.75,32,22,32,0.00
2013-7-24,80.7,79.0,77.7,78.0,76.2,74.7,93,91,88,29.84,29.75,23,13,23,0.00
2013-7-25,85.0,79.6,74.6,76.9,74.1,70.1,92,84,72,30.00,29.78,15,4,15,0.05
2013-7-26,83.5,77.4,72.9,72.5,70.3,68.7,90,79,63,30.09,29.99,19,6,19,0.00
2013-7-27,85.6,79.3,74.2,75.6,72.0,65.2,88,79,52,30.06,29.97,22,6,22,0.00
2013-7-28,82.2,80.0,77.0,77.9,75.7,73.5,91,87,82,30.04,29.88,31,14,31,0.18
2013-7-29,81.3,80.4,79.5,77.4,76.5,75.6,90,88,85,30.16,30.02,23,8,23,0.00
2013-7-30,81.0,80.4,76.6,76.8,76.2,72.6,90,87,83,30.20,30.14,9,2,9,0.00
2013-7-31,82.8,79.2,75.5,74.8,72.1,66.4,92,79,61,30.14,30.04,20,8,20,0.00
2013-8-1,81.0,76.6,73.3,76.1,73.3,70.8,93,89,82,30.04,29.90,40,11,40,0.17
2013-8-2,81.2,77.9,76.1,77.7,74.5,71.6,90,89,85,30.06,29.91,27,16,27,0.00
2013-8-3,81.8,80.8,80.0,78.3,77.4,77.0,92,90,86,30.05,29.94,23,15,23,0.00
2013-8-4,80.3,78.1,75.2,77.4,74.5,67.1,93,89,75,30.02,29.87,24,10,24,0.08
2013-8-5,82.1,77.5,75.2,67.1,63.9,0.0,76,64,43,30.08,30.01,16,4,16,0.00
2013-8-6,81.0,78.8,75.5,71.2,68.2,64.1,78,70,63,30.08,30.00,16,8,16,0.00
2013-8-7,81.7,79.7,76.4,75.0,72.3,68.9,84,78,71,30.11,30.05,23,10,23,0.01
2013-8-8,81.4,80.7,79.1,77.7,76.5,74.7,90,87,84,30.08,30.03,18,7,18,0.00
2013-8-9,81.6,81.4,81.4,78.1,77.2,77.2,89,87,87,30.10,30.04,23,2,23,0.00
2013-8-10,82.4,81.2,80.4,79.1,77.9,75.4,92,90,83,30.14,30.05,30,16,30,0.00
2013-8-11,81.7,80.4,78.7,79.5,77.3,73.0,94,90,83,30.12,30.04,17,10,17,0.00
2013-8-12,82.4,80.5,78.9,80.0,77.8,75.1,94,91,83,30.07,29.96,18,10,18,0.00
2013-8-13,82.2,80.2,78.0,79.6,76.0,73.6,94,87,84,29.96,29.81,33,17,33,0.07
2013-8-14,78.0,77.6,72.0,75.2,74.3,62.4,91,90,72,30.04,29.80,18,17,18,0.00
2013-8-15,72.2,71.4,68.9,63.5,62.6,61.9,83,74,71,30.05,30.03,19,7,19,0.04
2013-8-17,79.2,74.6,0.0,75.1,71.6,0.0,95,90,86,30.13,30.05,18,8,22,0.13
2013-8-18,79.5,47.8,0.0,76.8,45.7,-2.0,93,54,89,30.19,30.11,11,6,11,0.00
2013-8-19,78.9,76.0,74.5,76.8,74.2,72.9,96,94,88,30.18,30.08,11,1,11,0.15
2013-8-20,79.4,76.9,74.4,76.6,74.5,72.6,95,92,91,30.18,30.08,0,0,0,0.00
2013-8-21,82.0,79.5,76.2,78.5,75.9,73.4,93,89,82,30.23,30.13,0,0,0,0.00
2013-8-22,81.5,79.4,75.2,77.9,75.1,71.2,91,87,79,30.14,30.02,0,0,0,0.00
2013-8-23,82.0,78.7,71.8,78.1,74.6,69.1,93,87,71,30.03,29.91,0,0,0,0.55
2013-8-24,81.2,75.7,71.3,73.1,68.8,64.9,94,80,62,30.23,29.99,0,0,0,0.05
2013-8-25,79.5,74.2,70.1,67.2,65.2,63.4,84,74,63,30.31,30.22,20,2,20,0.00
2013-8-26,83.0,74.6,67.2,67.6,64.1,58.1,90,71,47,30.27,30.12,15,6,17,0.00
2013-8-27,79.1,76.8,70.7,70.6,66.3,62.8,83,70,61,30.13,29.98,23,12,23,0.00
2013-8-28,79.6,78.4,77.4,76.6,73.4,69.4,91,85,74,30.01,29.90,23,16,23,0.00
2013-8-29,86.2,79.2,74.3,77.2,74.3,70.5,90,85,71,29.98,29.84,25,11,25,0.28
2013-8-30,81.2,76.7,72.0,74.0,71.7,69.6,93,85,72,30.03,29.95,19,7,19,0.00
2013-8-31,82.3,79.4,75.4,77.0,75.0,73.2,94,87,77,29.99,29.91,13,3,13,0.00
2013-9-1,81.2,80.3,79.2,78.6,77.4,76.3,92,91,90,29.96,29.86,27,15,27,0.00
2013-9-2,81.5,79.9,72.9,78.9,77.1,71.1,94,91,87,29.93,29.83,32,17,32,1.48
2013-9-3,81.1,79.2,73.8,78.5,75.8,71.4,94,89,82,29.94,29.83,33,14,40,1.18
2013-9-4,81.3,78.1,73.4,75.6,73.1,69.3,89,85,79,30.08,29.93,20,7,20,0.00
2013-9-5,82.3,79.6,77.5,77.7,75.8,74.5,94,88,82,30.08,30.01,15,2,15,0.04
2013-9-6,82.0,76.9,73.2,76.7,72.1,66.7,93,85,73,30.11,30.02,25,6,25,0.56
2013-9-7,80.3,74.8,70.4,67.0,63.1,58.4,81,68,50,30.08,29.99,18,6,18,0.00
2013-9-8,80.0,76.7,71.0,73.1,68.0,62.5,83,75,66,29.99,29.90,17,7,17,0.00
2013-9-9,82.8,79.3,75.2,74.2,72.2,68.6,89,79,64,30.16,29.99,20,6,20,0.00
2013-9-10,86.3,79.8,75.1,74.2,71.8,66.7,90,77,55,30.23,30.15,20,6,20,0.00
2013-9-11,83.7,79.1,75.1,73.3,71.4,68.0,88,78,61,30.20,30.09,16,4,16,0.00
2013-9-12,80.9,79.2,75.9,75.0,72.7,69.8,89,81,71,30.10,29.82,24,8,24,0.00
2013-9-13,85.5,80.3,75.0,75.4,72.5,67.0,84,78,58,29.83,29.73,26,11,26,0.09
2013-9-14,78.8,73.1,68.3,68.3,66.0,62.9,86,79,69,30.10,29.82,26,9,26,0.01
2013-9-15,80.5,73.7,68.7,69.6,65.6,63.5,88,76,59,30.20,30.10,19,5,19,0.00
2013-9-16,80.8,75.9,70.8,75.3,71.6,66.4,94,87,77,30.14,30.03,21,4,22,0.33
2013-9-17,76.4,70.7,65.1,66.7,62.4,55.7,86,75,64,30.24,30.11,28,12,28,0.00
2013-9-18,75.7,68.5,61.0,64.0,59.4,56.2,91,73,54,30.23,30.13,21,8,21,0.00
2013-9-19,77.7,70.6,64.4,64.7,59.9,56.3,86,70,52,30.16,30.07,14,4,14,0.00
2013-9-20,78.8,72.6,68.2,65.8,63.7,59.6,89,75,54,30.08,29.97,13,2,13,0.00
2013-9-21,78.6,74.0,70.1,72.6,69.2,65.3,92,85,78,29.98,29.76,18,6,18,0.00
2013-9-22,78.8,74.5,69.9,73.6,69.7,63.2,93,85,77,29.82,29.67,33,12,33,0.78
2013-9-23,73.0,68.5,63.7,64.7,58.6,54.1,85,71,54,30.07,29.82,21,7,21,0.00
2013-9-24,72.3,66.5,61.8,58.0,56.0,53.5,82,69,55,30.08,29.95,15,2,15,0.00
2013-9-25,72.3,67.9,63.0,61.4,59.5,57.2,85,75,63,29.96,29.84,15,3,15,0.00
2013-9-26,76.9,70.0,65.1,66.1,62.9,60.7,88,79,61,29.95,29.82,15,6,17,0.04
2013-9-27,73.9,69.5,66.5,63.6,60.7,55.5,87,75,54,30.09,29.94,26,10,26,0.00
2013-9-28,75.8,69.4,64.5,64.2,62.0,60.1,89,78,62,30.14,30.05,24,10,24,0.00
2013-9-29,76.5,67.4,63.1,66.2,62.6,60.5,92,85,62,30.09,29.97,16,6,16,0.00
2013-9-30,75.8,67.7,60.5,63.1,59.7,55.2,92,76,56,30.05,29.96,12,3,12,0.00
2013-10-1,77.4,70.4,62.9,63.1,59.2,54.9,90,69,46,30.11,30.02,16,3,16,0.00
2013-10-2,77.0,72.4,64.6,70.6,64.7,59.2,87,77,61,30.11,30.04,16,5,16,0.00
2013-10-3,76.9,73.7,68.2,71.4,69.2,65.2,91,86,80,30.14,30.09,11,3,11,0.00
2013-10-4,78.3,75.5,72.1,71.2,69.7,67.5,92,82,74,30.15,30.08,7,0,7,0.00
2013-10-5,78.7,75.2,69.4,72.9,70.3,67.3,93,85,74,30.13,30.07,10,2,10,0.00
2013-10-6,78.3,77.1,75.9,74.0,72.1,70.4,89,85,78,30.08,29.97,17,8,17,0.00
2013-10-7,79.8,77.9,76.2,74.5,73.4,72.4,91,86,80,29.97,29.87,22,11,22,0.01
2013-10-8,77.5,67.5,64.5,74.3,65.4,62.4,95,93,88,30.04,29.90,32,14,32,1.28
2013-10-9,68.4,65.6,63.3,66.3,63.9,61.5,95,94,92,30.02,29.83,36,17,36,1.48
2013-10-10,64.7,62.5,60.2,62.7,60.7,58.5,96,94,90,29.87,29.81,26,10,26,0.00
2013-10-11,66.3,63.1,60.0,62.8,60.6,58.3,95,92,87,29.93,29.83,16,6,16,0.01
2013-10-12,69.0,66.1,63.2,65.7,63.4,61.5,94,91,86,30.01,29.90,7,2,9,0.01
2013-10-13,77.8,70.6,66.2,70.2,67.4,64.4,95,90,75,30.08,30.00,22,8,22,0.00
2013-10-14,71.9,70.0,67.2,68.7,66.5,63.4,92,89,85,30.11,30.05,24,13,29,0.01
2013-10-15,70.5,67.3,64.6,66.9,64.5,61.9,93,91,86,30.07,29.96,22,10,22,0.00
2013-10-16,72.6,69.4,67.4,68.3,66.6,65.3,93,91,85,29.98,29.92,16,6,16,0.00
2013-10-17,73.0,69.4,64.7,69.5,65.8,63.2,96,89,81,29.97,29.87,20,8,20,0.01
2013-10-18,75.9,71.2,68.3,70.2,67.0,65.2,95,87,73,29.99,29.88,19,7,19,0.10
2013-10-19,73.3,71.3,68.2,72.1,69.8,66.7,97,95,92,29.94,29.84,15,5,15,0.19
2013-10-20,71.7,65.3,61.4,69.3,58.6,55.4,92,79,70,30.08,29.86,21,8,21,0.00
2013-10-21,69.3,64.0,58.4,61.1,56.1,51.6,87,76,60,30.11,29.97,16,5,16,0.00
2013-10-22,67.8,65.0,61.3,60.5,56.2,51.8,86,73,65,29.97,29.81,16,4,16,0.01
2013-10-23,71.3,63.4,55.8,61.3,56.6,45.6,93,79,53,29.92,29.64,27,9,27,0.29
2013-10-24,59.7,53.2,44.9,45.8,39.7,35.0,79,61,42,30.14,29.92,20,6,20,0.00
2013-10-25,57.5,52.2,48.5,45.0,37.8,30.8,78,59,37,30.30,30.13,22,7,22,0.00
2013-10-26,61.8,54.3,45.8,49.8,41.9,37.1,77,63,51,30.30,30.08,20,6,20,0.00
2013-10-27,64.2,59.1,53.2,54.3,44.8,36.5,87,60,44,30.13,30.03,14,4,15,0.00
2013-10-28,68.4,62.5,56.7,56.8,54.2,50.1,91,76,53,30.24,30.13,7,0,7,0.00
2013-10-29,71.6,63.2,57.5,59.1,55.2,51.3,88,76,55,30.30,30.20,12,3,13,0.00
2013-10-30,70.0,65.0,59.4,63.6,59.6,56.2,93,83,65,30.29,30.18,7,2,7,0.00
2013-10-31,71.9,67.7,62.2,68.0,64.7,59.8,96,90,79,30.19,29.98,30,8,33,0.02
2013-11-1,73.0,71.2,67.5,70.9,68.8,65.7,95,92,86,29.97,29.72,33,17,36,0.09
2013-11-2,73.0,66.6,61.3,70.3,62.1,51.5,96,86,70,29.85,29.68,31,9,33,0.75
2013-11-3,62.9,57.9,53.5,51.5,46.2,41.4,83,66,48,30.29,29.85,21,8,22,0.00
2013-11-4,57.0,54.0,51.5,49.8,43.8,38.1,87,69,57,30.44,30.29,24,10,28,0.00
2013-11-5,72.9,62.5,53.5,59.9,55.4,49.7,90,78,53,30.40,30.34,24,10,24,0.00
2013-11-6,66.2,62.8,59.3,63.9,60.7,56.2,97,93,87,30.34,30.08,20,6,20,0.17
2013-11-7,69.7,66.1,56.3,67.9,63.5,44.0,97,92,62,30.08,29.88,29,6,29,0.20
2013-11-8,56.8,52.4,47.6,45.2,38.1,30.2,79,59,39,30.28,29.99,23,7,23,0.00
2013-11-9,62.4,55.1,45.6,54.4,45.7,39.7,86,71,58,30.33,30.16,17,4,17,0.00
2013-11-10,65.0,60.4,55.1,57.0,49.1,39.0,81,67,45,30.18,30.05,21,11,21,0.00
2013-11-11,59.7,53.5,48.0,47.0,42.5,39.2,74,66,60,30.27,30.13,24,9,24,0.00
2013-11-13,44.7,41.5,37.8,28.6,25.7,22.0,68,54,42,30.44,30.35,15,7,25,0.00
2013-11-14,58.4,47.6,36.1,44.9,29.4,14.6,78,52,20,30.45,30.31,13,3,13,0.00
2013-11-15,66.3,58.0,47.2,60.0,51.0,43.0,94,78,54,30.34,30.20,16,4,16,0.25
2013-11-16,71.2,62.6,58.8,65.9,60.4,57.7,97,93,79,30.22,30.15,14,3,15,0.03
2013-11-17,72.3,63.3,58.2,66.9,61.5,56.6,97,94,82,30.16,29.94,19,5,19,0.03
2013-11-18,67.7,65.5,61.3,66.4,63.8,48.9,98,95,63,29.96,29.76,29,10,29,0.02
2013-11-19,61.6,53.1,47.7,49.0,38.3,33.9,73,58,44,30.22,29.86,24,11,24,0.00
2013-11-20,58.4,51.9,46.3,49.4,45.3,39.3,87,78,69,30.34,30.19,26,12,26,0.00
2013-11-21,63.3,57.2,53.3,59.7,54.7,49.5,96,91,87,30.39,30.32,19,7,20,0.01
2013-11-22,65.3,60.5,54.0,62.4,58.4,52.6,96,93,88,30.35,30.08,16,5,16,0.01
2013-11-23,65.6,58.2,52.0,62.6,55.3,39.8,96,90,64,30.08,29.98,20,6,20,0.04
2013-11-24,52.0,39.3,32.7,40.6,21.0,12.2,65,48,35,30.47,30.04,23,12,31,0.00
2013-11-25,43.3,36.9,29.7,39.1,25.1,12.9,87,62,44,30.51,30.31,17,8,20,0.00
2013-11-26,68.0,57.5,42.7,66.2,54.8,39.1,97,91,81,30.31,29.63,48,16,48,22.76
2013-11-27,68.3,55.6,36.8,66.2,53.5,28.1,97,93,72,30.08,29.41,31,14,33,98.98
2013-11-28,43.0,37.3,31.0,32.5,26.9,22.5,78,66,51,30.45,30.07,23,7,23,0.00
2013-11-29,52.2,44.6,38.8,36.8,33.0,27.6,78,65,39,30.52,30.42,22,8,23,0.00
2013-11-30,56.0,47.5,40.7,47.8,42.1,34.3,90,82,73,30.51,30.27,23,12,23,0.00
2013-12-1,57.9,49.9,44.5,51.8,47.2,42.0,95,90,79,30.28,29.97,15,4,15,0.01
2013-12-2,54.7,51.3,48.3,49.8,47.6,43.4,95,87,77,29.98,29.74,12,5,14,0.00
2013-12-3,56.2,51.1,43.4,49.6,42.9,37.8,90,75,52,30.00,29.82,7,1,7,0.00
2013-12-4,62.6,59.2,54.6,61.2,57.2,49.0,97,93,77,30.10,29.98,18,1,18,0.73
2013-12-5,64.9,59.5,53.3,64.0,58.7,52.5,98,97,97,30.15,30.08,13,1,13,0.01
2013-12-6,64.8,62.5,60.7,63.5,61.6,59.8,98,97,96,30.15,30.05,18,8,18,0.00
2013-12-7,65.3,53.5,44.2,64.3,52.2,42.4,98,95,92,30.35,30.05,28,13,28,0.30
2013-12-8,48.4,45.5,43.8,46.5,44.0,42.4,95,94,92,30.35,30.21,25,11,25,0.09
2013-12-9,62.1,53.8,45.1,61.4,52.9,43.9,98,97,95,30.21,30.04,13,1,13,0.01
2013-12-10,62.2,54.3,41.0,61.6,53.0,38.6,99,95,88,30.28,29.82,35,9,35,0.15
2013-12-11,51.7,43.2,36.7,38.9,32.3,26.3,92,66,49,30.42,30.25,17,4,17,0.00
2013-12-12,46.7,42.0,37.3,33.1,30.8,25.8,80,65,46,30.35,30.21,20,5,20,0.00
2013-12-13,51.7,43.2,35.3,39.0,30.3,22.6,80,62,42,30.39,30.27,15,4,15,0.00
2013-12-14,66.0,54.3,42.7,64.3,48.6,31.9,97,81,59,30.29,29.74,44,12,44,1.41
2013-12-15,60.6,54.3,44.8,59.8,51.1,37.2,98,89,74,30.02,29.67,23,7,23,0.09
2013-12-16,55.3,47.5,37.8,48.1,38.1,32.2,85,70,49,30.16,30.02,18,6,18,0.00
2013-12-17,60.7,56.5,53.3,52.7,48.3,41.6,80,74,64,30.15,29.92,39,19,39,0.00
2013-12-18,57.8,46.7,42.5,49.9,29.4,22.8,77,52,34,30.28,29.94,33,4,33,0.00
2013-12-19,56.8,52.5,44.2,53.4,41.5,23.3,89,67,42,30.32,30.24,17,6,17,0.00
2013-12-20,62.0,57.7,49.9,59.9,55.4,48.0,95,92,89,30.25,30.14,12,2,12,0.00
2013-12-21,63.1,60.8,57.8,62.1,59.6,56.4,97,96,93,30.17,30.11,14,4,14,0.00
2013-12-22,66.5,63.1,61.1,65.6,62.1,60.0,98,97,94,30.14,30.08,38,9,38,0.51
2013-12-23,64.7,62.9,59.9,63.8,62.0,59.3,98,97,94,30.12,30.01,25,12,25,0.12
2013-12-24,60.0,45.8,39.5,59.4,40.9,29.6,98,83,65,30.35,30.00,28,10,28,0.22
2013-12-25,43.1,38.9,33.5,37.9,31.9,25.8,87,76,67,30.46,30.30,18,10,20,0.00
2013-12-26,49.8,44.1,40.9,48.3,41.4,37.3,95,90,82,30.30,30.18,16,7,18,0.14
2013-12-27,51.9,45.7,42.0,40.0,37.3,32.3,86,73,49,30.37,30.25,22,8,22,0.00
2013-12-28,60.3,49.5,40.8,49.1,39.8,34.8,85,70,43,30.36,30.13,12,5,14,0.00
2013-12-29,64.0,59.5,53.7,62.1,57.1,50.4,97,92,82,30.12,29.70,40,15,40,0.52
2013-12-30,56.9,51.7,47.3,51.6,48.2,44.8,95,88,72,30.08,29.89,10,2,10,0.01
2013-12-31,53.1,48.6,45.1,45.0,39.4,31.6,92,72,47,30.32,30.05,18,3,18,0.00
2014-1-1,54.0,47.6,42.1,52.3,39.2,31.4,94,73,57,30.39,30.10,13,3,13,0.11
2014-1-2,59.6,51.0,47.7,59.0,49.9,46.3,98,96,93,30.10,29.47,39,3,39,0.62